Simultaneous Nadir Overpasses (SNOs) Predictions

Prediction of SNOs between AQUA and METOP-B Satellite Orbit:

Table of predicted SNOs for the next 14.0 days since TLE Epoch: 12/19/2020
Index Date (AQUA) Time (AQUA) Lat,Lon (AQUA) SZA (AQUA ) Date (METOP-B) Time (METOP-B) Lat,Lon (METOP-B) SZA (METOP-B ) Distance(km) Time Diff (sec)
1 12/19/2020 08:05:43 73.70, 53.02 97.09 12/19/2020 08:04:30 73.66, 52.75 97.06 9.60 73
2 12/19/2020 08:55:10 -73.80,-139.55 82.82 12/19/2020 08:55:08 -73.82,-139.53 82.79 2.58 2
3 12/19/2020 09:44:40 73.91, 27.85 97.30 12/19/2020 09:45:47 73.89, 27.96 97.28 3.84 67
4 12/22/2020 03:40:00 73.76, 119.32 97.17 12/22/2020 03:38:52 73.78, 119.43 97.19 3.75 68
5 12/22/2020 04:29:26 -73.80, -73.12 82.79 12/22/2020 04:29:33 -73.80, -73.20 82.80 2.66 7
6 12/22/2020 05:18:57 73.97, 94.15 97.39 12/22/2020 05:20:09 74.01, 94.65 97.41 15.87 72
7 12/24/2020 23:14:15 73.73,-174.16 97.10 12/24/2020 23:13:17 73.74,-174.25 97.12 3.35 58
8 12/25/2020 00:03:42 -73.81, -6.70 82.82 12/25/2020 00:03:57 -73.82, -6.75 82.82 1.62 15
9 12/25/2020 00:53:19 74.29, 159.84 97.69 12/25/2020 00:54:27 74.32, 161.83 97.66 59.96 68
10 12/27/2020 18:48:30 73.75,-107.77 97.02 12/27/2020 18:47:40 73.76,-107.82 97.04 1.59 50
11 12/27/2020 19:37:57 -73.83, 59.70 82.91 12/27/2020 19:38:20 -73.83, 59.69 82.90 0.66 23
12 12/30/2020 14:22:46 73.78, -41.40 96.89 12/30/2020 14:22:04 73.77, -41.39 96.88 1.32 42
13 12/30/2020 15:12:13 -73.85, 126.08 83.04 12/30/2020 15:12:44 -73.85, 126.13 83.05 1.38 31



Historial Predications of SNOs between AQUA and METOP-B
